Time,TemperatureF,DewpointF,PressureIn,WindDirection,WindDirectionDegrees,WindSpeedMPH,WindSpeedGustMPH,Humidity,HourlyPrecipIn,Conditions,Clouds,dailyrainin,SoftwareType,DateUTC
2013-01-26 00:00:00,37.1,29.3,30.23,NE,36,4.0,4.0,73,0.00,,---,0.00,VWS V14.00,2013-01-26 06:00:00,
2013-01-26 00:01:00,37.1,29.3,30.23,NE,36,4.0,5.0,73,0.00,,---,0.00,VWS V14.00,2013-01-26 06:01:00,
2013-01-26 00:05:00,37.0,29.2,30.23,NE,36,2.0,5.0,73,0.00,,---,0.00,VWS V14.00,2013-01-26 06:05:00,
2013-01-26 00:06:00,37.0,29.2,30.23,NE,36,3.0,4.0,73,0.00,,---,0.00,VWS V14.00,2013-01-26 06:06:00,
2013-01-26 00:10:00,36.8,29.0,30.23,NE,36,2.0,5.0,73,0.00,,---,0.00,VWS V14.00,2013-01-26 06:10:00,
2013-01-26 00:11:00,36.7,28.9,30.23,NE,36,3.0,5.0,73,0.00,,---,0.00,VWS V14.00,2013-01-26 06:11:00,
2013-01-26 00:15:00,36.5,28.7,30.23,NE,36,5.0,5.0,73,0.00,,---,0.00,VWS V14.00,2013-01-26 06:15:00,
2013-01-26 00:16:00,36.4,28.9,30.23,NE,36,3.0,5.0,74,0.00,,---,0.00,VWS V14.00,2013-01-26 06:16:00,
2013-01-26 00:20:00,36.3,28.8,30.23,NE,36,4.0,5.0,74,0.00,,---,0.00,VWS V14.00,2013-01-26 06:20:00,
2013-01-26 00:21:00,36.2,28.7,30.23,NE,36,2.0,4.0,74,0.00,,---,0.00,VWS V14.00,2013-01-26 06:21:00,
2013-01-26 00:25:00,36.2,28.7,30.23,NE,36,0.0,4.0,74,0.00,,---,0.00,VWS V14.00,2013-01-26 06:25:00,
2013-01-26 00:26:00,36.2,28.7,30.24,NE,36,3.0,4.0,74,0.00,,---,0.00,VWS V14.00,2013-01-26 06:26:00,
2013-01-26 00:30:00,36.1,28.6,30.24,NE,36,3.0,4.0,74,0.00,,---,0.00,VWS V14.00,2013-01-26 06:30:00,
2013-01-26 00:31:00,36.1,28.6,30.24,NE,36,1.0,5.0,74,0.00,,---,0.00,VWS V14.00,2013-01-26 06:31:00,
2013-01-26 00:35:00,36.1,28.6,30.24,NE,36,0.0,5.0,74,0.00,,---,0.00,VWS V14.00,2013-01-26 06:35:00,
2013-01-26 00:36:00,36.1,28.6,30.24,NE,36,0.0,0.0,74,0.00,,---,0.00,VWS V14.00,2013-01-26 06:36:00,
2013-01-26 00:40:00,36.1,28.6,30.24,NE,36,0.0,0.0,74,0.00,,---,0.00,VWS V14.00,2013-01-26 06:40:00,
2013-01-26 00:41:00,36.1,28.6,30.24,NE,36,0.0,0.0,74,0.00,,---,0.00,VWS V14.00,2013-01-26 06:41:00,
2013-01-26 00:45:00,36.0,28.5,30.24,NE,36,0.0,0.0,74,0.00,,---,0.00,VWS V14.00,2013-01-26 06:45:00,
2013-01-26 00:46:00,36.0,28.5,30.23,NE,36,0.0,0.0,74,0.00,,---,0.00,VWS V14.00,2013-01-26 06:46:00,
2013-01-26 00:50:00,36.0,28.5,30.23,NE,36,0.0,0.0,74,0.00,,---,0.00,VWS V14.00,2013-01-26 06:50:00,
2013-01-26 00:51:00,35.9,28.4,30.23,NE,36,0.0,0.0,74,0.00,,---,0.00,VWS V14.00,2013-01-26 06:51:00,
2013-01-26 00:55:00,35.8,28.3,30.23,NE,36,3.0,4.0,74,0.00,,---,0.00,VWS V14.00,2013-01-26 06:55:00,
2013-01-26 00:56:00,35.7,28.2,30.23,NE,36,2.0,4.0,74,0.00,,---,0.00,VWS V14.00,2013-01-26 06:56:00,
2013-01-26 01:00:00,35.7,28.2,30.23,NE,36,3.0,4.0,74,0.00,,---,0.00,VWS V14.00,2013-01-26 07:00:00,
2013-01-26 01:01:00,35.6,28.1,30.23,NE,36,3.0,4.0,74,0.00,,---,0.00,VWS V14.00,2013-01-26 07:01:00,
2013-01-26 01:05:00,35.6,28.1,30.23,NE,36,4.0,5.0,74,0.00,,---,0.00,VWS V14.00,2013-01-26 07:05:00,
2013-01-26 01:06:00,35.6,28.1,30.23,NE,36,4.0,5.0,74,0.00,,---,0.00,VWS V14.00,2013-01-26 07:06:00,
2013-01-26 01:10:00,35.7,28.2,30.23,NE,36,2.0,5.0,74,0.00,,---,0.00,VWS V14.00,2013-01-26 07:10:00,
2013-01-26 01:11:00,35.6,28.1,30.23,NE,36,3.0,4.0,74,0.00,,---,0.00,VWS V14.00,2013-01-26 07:11:00,
2013-01-26 01:15:00,35.7,28.2,30.24,NE,36,4.0,5.0,74,0.00,,---,0.00,VWS V14.00,2013-01-26 07:15:00,
2013-01-26 01:16:00,35.7,28.2,30.23,NE,36,3.0,5.0,74,0.00,,---,0.00,VWS V14.00,2013-01-26 07:16:00,
2013-01-26 01:20:00,35.7,28.2,30.24,NE,36,3.0,5.0,74,0.00,,---,0.00,VWS V14.00,2013-01-26 07:20:00,
2013-01-26 01:21:00,35.7,28.2,30.24,NE,36,3.0,4.0,74,0.00,,---,0.00,VWS V14.00,2013-01-26 07:21:00,
2013-01-26 01:25:00,35.6,28.1,30.24,NE,36,2.0,4.0,74,0.00,,---,0.00,VWS V14.00,2013-01-26 07:25:00,
2013-01-26 01:26:00,35.6,28.1,30.23,NE,36,4.0,5.0,74,0.00,,---,0.00,VWS V14.00,2013-01-26 07:26:00,
2013-01-26 01:30:00,35.5,28.0,30.23,NE,36,4.0,5.0,74,0.00,,---,0.00,VWS V14.00,2013-01-26 07:30:00,
2013-01-26 01:31:00,35.3,27.5,30.23,NE,36,4.0,4.0,73,0.00,,---,0.00,VWS V14.00,2013-01-26 07:31:00,
2013-01-26 01:35:00,34.9,27.1,30.23,NE,36,4.0,5.0,73,0.00,,---,0.00,VWS V14.00,2013-01-26 07:35:00,
2013-01-26 01:36:00,34.6,26.9,30.23,NE,36,4.0,5.0,73,0.00,,---,0.00,VWS V14.00,2013-01-26 07:36:00,
2013-01-26 01:40:00,34.2,26.8,30.23,NE,36,4.0,5.0,74,0.00,,---,0.00,VWS V14.00,2013-01-26 07:40:00,
2013-01-26 01:41:00,33.9,26.5,30.23,NE,36,5.0,5.0,74,0.00,,---,0.00,VWS V14.00,2013-01-26 07:41:00,
2013-01-26 01:45:00,33.5,26.4,30.23,NE,36,5.0,6.0,75,0.00,,---,0.00,VWS V14.00,2013-01-26 07:45:00,
2013-01-26 01:46:00,33.3,26.6,30.23,NE,36,4.0,5.0,76,0.00,,---,0.00,VWS V14.00,2013-01-26 07:46:00,
2013-01-26 01:50:00,33.0,26.6,30.23,NE,36,5.0,5.0,77,0.00,,---,0.00,VWS V14.00,2013-01-26 07:50:00,
2013-01-26 01:51:00,32.9,26.5,30.23,NE,36,4.0,5.0,77,0.00,,---,0.00,VWS V14.00,2013-01-26 07:51:00,
2013-01-26 01:55:00,32.6,26.2,30.23,NE,36,4.0,5.0,77,0.00,,---,0.00,VWS V14.00,2013-01-26 07:55:00,
2013-01-26 01:56:00,32.6,26.2,30.23,NE,36,5.0,5.0,77,0.00,,---,0.00,VWS V14.00,2013-01-26 07:56:00,
2013-01-26 02:00:00,32.4,26.0,30.23,NE,36,5.0,5.0,77,0.00,,---,0.00,VWS V14.00,2013-01-26 08:00:00,
2013-01-26 02:01:00,32.4,26.3,30.23,NE,36,5.0,5.0,78,0.00,,---,0.00,VWS V14.00,2013-01-26 08:01:00,
2013-01-26 02:05:00,32.3,26.2,30.23,NE,36,6.0,7.0,78,0.00,,---,0.00,VWS V14.00,2013-01-26 08:05:00,
2013-01-26 02:06:00,32.4,26.3,30.23,NE,36,6.0,7.0,78,0.00,,---,0.00,VWS V14.00,2013-01-26 08:06:00,
2013-01-26 02:10:00,32.7,26.9,30.23,NE,37,5.0,7.0,79,0.00,,---,0.00,VWS V14.00,2013-01-26 08:10:00,
2013-01-26 02:11:00,32.9,27.1,30.23,NE,37,6.0,7.0,79,0.00,,---,0.00,VWS V14.00,2013-01-26 08:11:00,
2013-01-26 02:15:00,33.3,27.5,30.23,NE,37,5.0,7.0,79,0.00,,---,0.00,VWS V14.00,2013-01-26 08:15:00,
2013-01-26 02:16:00,33.5,27.7,30.23,NE,37,6.0,7.0,79,0.00,,---,0.00,VWS V14.00,2013-01-26 08:16:00,
2013-01-26 02:20:00,34.1,28.0,30.22,NE,38,6.0,7.0,78,0.00,,---,0.00,VWS V14.00,2013-01-26 08:20:00,
2013-01-26 02:25:00,34.4,28.0,30.22,NE,38,7.0,8.0,77,0.00,,---,0.00,VWS V14.00,2013-01-26 08:25:00,
2013-01-26 02:26:00,34.4,28.0,30.22,NE,38,6.0,7.0,77,0.00,,---,0.00,VWS V14.00,2013-01-26 08:26:00,
2013-01-26 02:30:00,34.4,28.0,30.22,NE,38,7.0,9.0,77,0.00,,---,0.00,VWS V14.00,2013-01-26 08:30:00,
2013-01-26 02:31:00,34.4,27.6,30.22,NE,38,6.0,9.0,76,0.00,,---,0.00,VWS V14.00,2013-01-26 08:31:00,
2013-01-26 02:35:00,34.4,27.6,30.21,NE,38,6.0,7.0,76,0.00,,---,0.00,VWS V14.00,2013-01-26 08:35:00,
2013-01-26 02:40:00,34.2,27.4,30.21,NE,38,5.0,7.0,76,0.00,,---,0.00,VWS V14.00,2013-01-26 08:40:00,
2013-01-26 02:45:00,33.8,27.0,30.21,NE,38,5.0,6.0,76,0.00,,---,0.00,VWS V14.00,2013-01-26 08:45:00,
2013-01-26 02:50:00,33.6,27.2,30.21,NE,38,5.0,6.0,77,0.00,,---,0.00,VWS V14.00,2013-01-26 08:50:00,
2013-01-26 02:51:00,33.5,27.1,30.21,NE,38,5.0,6.0,77,0.00,,---,0.00,VWS V14.00,2013-01-26 08:51:00,
2013-01-26 02:55:00,33.4,27.0,30.21,NE,38,4.0,5.0,77,0.00,,---,0.00,VWS V14.00,2013-01-26 08:55:00,
2013-01-26 03:00:00,33.4,27.0,30.21,NE,38,4.0,5.0,77,0.00,,---,0.00,VWS V14.00,2013-01-26 09:00:00,
2013-01-26 03:05:00,33.6,27.2,30.21,NE,38,4.0,5.0,77,0.00,,---,0.00,VWS V14.00,2013-01-26 09:05:00,
2013-01-26 03:10:00,33.7,27.3,30.21,NE,38,4.0,5.0,77,0.00,,---,0.00,VWS V14.00,2013-01-26 09:10:00,
2013-01-26 03:15:00,33.7,27.3,30.21,NE,38,5.0,5.0,77,0.00,,---,0.00,VWS V14.00,2013-01-26 09:15:00,
2013-01-26 03:20:00,33.8,27.4,30.20,NE,38,3.0,5.0,77,0.00,,---,0.00,VWS V14.00,2013-01-26 09:20:00,
2013-01-26 03:25:00,33.8,27.4,30.20,NE,38,4.0,5.0,77,0.00,,---,0.00,VWS V14.00,2013-01-26 09:25:00,
2013-01-26 03:30:00,33.8,27.0,30.20,NE,38,4.0,4.0,76,0.00,,---,0.00,VWS V14.00,2013-01-26 09:30:00,
2013-01-26 03:35:00,33.5,26.8,30.20,NE,38,5.0,5.0,76,0.00,,---,0.00,VWS V14.00,2013-01-26 09:35:00,
2013-01-26 03:40:00,33.0,26.3,30.19,NE,38,4.0,5.0,76,0.00,,---,0.00,VWS V14.00,2013-01-26 09:40:00,
2013-01-26 03:45:00,32.7,26.3,30.19,NE,38,4.0,5.0,77,0.00,,---,0.00,VWS V14.00,2013-01-26 09:45:00,
2013-01-26 03:50:00,32.7,26.6,30.19,NE,38,3.0,4.0,78,0.00,,---,0.00,VWS V14.00,2013-01-26 09:50:00,
2013-01-26 03:55:00,32.8,26.7,30.19,NE,38,3.0,3.0,78,0.00,,---,0.00,VWS V14.00,2013-01-26 09:55:00,
2013-01-26 04:00:00,33.0,26.9,30.19,NE,38,3.0,4.0,78,0.00,,---,0.00,VWS V14.00,2013-01-26 10:00:00,
2013-01-26 04:05:00,32.9,26.8,30.19,NE,38,1.0,2.0,78,0.00,,---,0.00,VWS V14.00,2013-01-26 10:05:00,
2013-01-26 04:10:00,32.9,26.5,30.19,NE,38,1.0,2.0,77,0.00,,---,0.00,VWS V14.00,2013-01-26 10:10:00,
2013-01-26 04:15:00,32.9,26.5,30.19,NE,38,0.0,0.0,77,0.00,,---,0.00,VWS V14.00,2013-01-26 10:15:00,
2013-01-26 04:20:00,32.8,26.4,30.19,NE,38,0.0,0.0,77,0.00,,---,0.00,VWS V14.00,2013-01-26 10:20:00,
2013-01-26 04:25:00,32.7,26.0,30.19,NE,38,0.0,0.0,76,0.00,,---,0.00,VWS V14.00,2013-01-26 10:25:00,
2013-01-26 04:30:00,32.3,25.6,30.20,NE,38,0.0,0.0,76,0.00,,---,0.00,VWS V14.00,2013-01-26 10:30:00,
2013-01-26 04:35:00,31.9,25.5,30.21,NE,38,0.0,0.0,77,0.00,,---,0.00,VWS V14.00,2013-01-26 10:35:00,
2013-01-26 04:40:00,31.6,25.5,30.20,NE,38,0.0,0.0,78,0.00,,---,0.00,VWS V14.00,2013-01-26 10:40:00,
2013-01-26 04:45:00,31.5,25.4,30.20,NE,38,0.0,0.0,78,0.00,,---,0.00,VWS V14.00,2013-01-26 10:45:00,
2013-01-26 04:50:00,31.5,25.8,30.20,NE,38,0.0,0.0,79,0.00,,---,0.00,VWS V14.00,2013-01-26 10:50:00,
2013-01-26 04:55:00,31.3,25.6,30.21,NE,38,0.0,0.0,79,0.00,,---,0.00,VWS V14.00,2013-01-26 10:55:00,
2013-01-26 05:00:00,31.2,25.5,30.21,NE,38,0.0,0.0,79,0.00,,---,0.00,VWS V14.00,2013-01-26 11:00:00,
2013-01-26 05:05:00,31.2,25.5,30.21,NE,38,0.0,0.0,79,0.00,,---,0.00,VWS V14.00,2013-01-26 11:05:00,
2013-01-26 05:10:00,31.1,25.7,30.21,NE,38,0.0,0.0,80,0.00,,---,0.00,VWS V14.00,2013-01-26 11:10:00,
2013-01-26 05:15:00,31.1,25.7,30.21,NE,38,0.0,0.0,80,0.00,,---,0.00,VWS V14.00,2013-01-26 11:15:00,
2013-01-26 05:20:00,31.0,25.6,30.21,NE,38,0.0,0.0,80,0.00,,---,0.00,VWS V14.00,2013-01-26 11:20:00,
2013-01-26 05:25:00,31.0,25.6,30.21,NE,38,0.0,0.0,80,0.00,,---,0.00,VWS V14.00,2013-01-26 11:25:00,
2013-01-26 05:30:00,30.9,25.5,30.21,NE,38,0.0,0.0,80,0.00,,---,0.00,VWS V14.00,2013-01-26 11:30:00,
2013-01-26 05:35:00,31.0,25.6,30.21,NE,38,0.0,0.0,80,0.00,,---,0.00,VWS V14.00,2013-01-26 11:35:00,
2013-01-26 05:40:00,31.1,26.0,30.21,NE,38,0.0,0.0,81,0.00,,---,0.00,VWS V14.00,2013-01-26 11:40:00,
2013-01-26 05:45:00,31.3,26.2,30.21,NE,38,0.0,0.0,81,0.00,,---,0.00,VWS V14.00,2013-01-26 11:45:00,
2013-01-26 05:50:00,31.4,26.0,30.21,NE,38,0.0,0.0,80,0.00,,---,0.00,VWS V14.00,2013-01-26 11:50:00,
2013-01-26 05:55:00,31.5,26.0,30.21,NE,38,3.0,3.0,80,0.00,,---,0.00,VWS V14.00,2013-01-26 11:55:00,
2013-01-26 06:00:00,31.6,26.1,30.21,NE,38,0.0,2.0,80,0.00,,---,0.00,VWS V14.00,2013-01-26 12:00:00,
2013-01-26 06:05:00,31.5,25.8,30.22,NE,38,0.0,0.0,79,0.00,,---,0.00,VWS V14.00,2013-01-26 12:05:00,
2013-01-26 06:10:00,31.4,26.0,30.22,NE,38,0.0,0.0,80,0.00,,---,0.00,VWS V14.00,2013-01-26 12:10:00,
2013-01-26 06:15:00,31.3,25.9,30.22,NE,38,0.0,0.0,80,0.00,,---,0.00,VWS V14.00,2013-01-26 12:15:00,
2013-01-26 06:20:00,31.3,25.9,30.22,NE,38,0.0,0.0,80,0.00,,---,0.00,VWS V14.00,2013-01-26 12:20:00,
2013-01-26 06:25:00,31.2,25.8,30.22,NE,38,0.0,0.0,80,0.00,,---,0.00,VWS V14.00,2013-01-26 12:25:00,
2013-01-26 06:30:00,31.2,25.8,30.22,NE,38,0.0,0.0,80,0.00,,---,0.00,VWS V14.00,2013-01-26 12:30:00,
2013-01-26 06:35:00,31.2,25.8,30.22,NE,38,0.0,0.0,80,0.00,,---,0.00,VWS V14.00,2013-01-26 12:35:00,
2013-01-26 06:40:00,31.2,25.8,30.22,NE,38,0.0,0.0,80,0.00,,---,0.00,VWS V14.00,2013-01-26 12:40:00,
2013-01-26 06:45:00,31.2,25.8,30.23,NE,38,0.0,0.0,80,0.00,,---,0.00,VWS V14.00,2013-01-26 12:45:00,
2013-01-26 06:50:00,31.2,25.8,30.23,NE,38,0.0,0.0,80,0.00,,---,0.00,VWS V14.00,2013-01-26 12:50:00,
2013-01-26 06:55:00,31.0,25.6,30.23,NE,38,0.0,0.0,80,0.00,,---,0.00,VWS V14.00,2013-01-26 12:55:00,
2013-01-26 07:00:00,31.0,25.6,30.23,NE,38,0.0,0.0,80,0.00,,---,0.00,VWS V14.00,2013-01-26 13:00:00,
2013-01-26 07:05:00,30.8,25.4,30.23,NE,38,0.0,0.0,80,0.00,,---,0.00,VWS V14.00,2013-01-26 13:05:00,
2013-01-26 07:10:00,30.6,25.2,30.23,NE,38,0.0,0.0,80,0.00,,---,0.00,VWS V14.00,2013-01-26 13:10:00,
2013-01-26 07:15:00,30.4,25.0,30.23,NE,38,0.0,0.0,80,0.00,,---,0.00,VWS V14.00,2013-01-26 13:15:00,
2013-01-26 07:20:00,30.2,24.8,30.23,NE,38,0.0,0.0,80,0.00,,---,0.00,VWS V14.00,2013-01-26 13:20:00,
2013-01-26 07:25:00,30.0,24.6,30.23,NE,38,0.0,0.0,80,0.00,,---,0.00,VWS V14.00,2013-01-26 13:25:00,
2013-01-26 07:30:00,29.9,24.8,30.23,NE,38,0.0,0.0,81,0.00,,---,0.00,VWS V14.00,2013-01-26 13:30:00,
2013-01-26 07:35:00,29.9,25.1,30.23,NE,38,0.0,0.0,82,0.00,,---,0.00,VWS V14.00,2013-01-26 13:35:00,
2013-01-26 07:40:00,30.4,25.9,30.23,NE,38,0.0,0.0,83,0.00,,---,0.00,VWS V14.00,2013-01-26 13:40:00,
2013-01-26 07:45:00,31.1,26.8,30.23,NE,38,3.0,3.0,84,0.00,,---,0.00,VWS V14.00,2013-01-26 13:45:00,
2013-01-26 07:50:00,31.5,26.9,30.23,NE,38,3.0,3.0,83,0.00,,---,0.00,VWS V14.00,2013-01-26 13:50:00,
2013-01-26 07:55:00,31.4,26.5,30.23,NE,38,3.0,3.0,82,0.00,,---,0.00,VWS V14.00,2013-01-26 13:55:00,
2013-01-26 08:00:00,31.7,27.1,30.22,NE,38,3.0,3.0,83,0.00,,---,0.00,VWS V14.00,2013-01-26 14:00:00,
2013-01-26 08:05:00,31.9,27.0,30.22,NE,38,2.0,3.0,82,0.00,,---,0.00,VWS V14.00,2013-01-26 14:05:00,
2013-01-26 08:10:00,32.0,27.1,30.23,NE,38,1.0,2.0,82,0.00,,---,0.00,VWS V14.00,2013-01-26 14:10:00,
2013-01-26 08:15:00,32.3,27.7,30.22,NE,38,0.0,1.0,83,0.00,,---,0.00,VWS V14.00,2013-01-26 14:15:00,
2013-01-26 08:20:00,32.8,28.5,30.23,NE,38,0.0,0.0,84,0.00,,---,0.00,VWS V14.00,2013-01-26 14:20:00,
2013-01-26 08:25:00,33.3,29.0,30.23,NE,38,0.0,0.0,84,0.00,,---,0.00,VWS V14.00,2013-01-26 14:25:00,
2013-01-26 08:30:00,33.7,29.7,30.22,NE,38,0.0,0.0,85,0.00,,---,0.00,VWS V14.00,2013-01-26 14:30:00,
2013-01-26 08:35:00,34.2,30.2,30.22,NE,38,0.0,0.0,85,0.00,,---,0.00,VWS V14.00,2013-01-26 14:35:00,
2013-01-26 08:40:00,34.6,30.9,30.23,NE,38,0.0,0.0,86,0.00,,---,0.00,VWS V14.00,2013-01-26 14:40:00,
2013-01-26 08:45:00,35.3,31.5,30.23,NE,38,0.0,0.0,86,0.00,,---,0.00,VWS V14.00,2013-01-26 14:45:00,
2013-01-26 08:50:00,36.0,32.2,30.23,NE,38,0.0,0.0,86,0.00,,---,0.00,VWS V14.00,2013-01-26 14:50:00,
2013-01-26 08:55:00,36.6,33.1,30.23,NE,38,0.0,0.0,87,0.00,,---,0.00,VWS V14.00,2013-01-26 14:55:00,
2013-01-26 09:00:00,37.3,33.8,30.24,NE,38,0.0,0.0,87,0.00,,---,0.00,VWS V14.00,2013-01-26 15:00:00,
2013-01-26 09:05:00,37.9,34.1,30.24,NE,38,0.0,0.0,86,0.00,,---,0.00,VWS V14.00,2013-01-26 15:05:00,
2013-01-26 09:10:00,38.3,34.5,30.24,NE,38,0.0,0.0,86,0.00,,---,0.00,VWS V14.00,2013-01-26 15:10:00,
2013-01-26 09:15:00,38.7,34.9,30.24,NE,38,0.0,0.0,86,0.00,,---,0.00,VWS V14.00,2013-01-26 15:15:00,
2013-01-26 09:20:00,39.1,35.3,30.24,NE,38,0.0,0.0,86,0.00,,---,0.00,VWS V14.00,2013-01-26 15:20:00,
2013-01-26 09:25:00,39.5,35.4,30.24,NE,38,0.0,0.0,85,0.00,,---,0.00,VWS V14.00,2013-01-26 15:25:00,
2013-01-26 09:30:00,39.7,35.6,30.24,NE,38,0.0,0.0,85,0.00,,---,0.00,VWS V14.00,2013-01-26 15:30:00,
2013-01-26 09:35:00,40.0,35.6,30.24,NE,38,0.0,0.0,84,0.00,,---,0.00,VWS V14.00,2013-01-26 15:35:00,
2013-01-26 09:40:00,40.3,35.9,30.24,NE,38,0.0,0.0,84,0.00,,---,0.00,VWS V14.00,2013-01-26 15:40:00,
2013-01-26 09:45:00,40.8,36.3,30.24,NE,38,0.0,0.0,84,0.00,,---,0.00,VWS V14.00,2013-01-26 15:45:00,
2013-01-26 09:50:00,41.7,37.5,30.24,NE,38,2.0,3.0,85,0.00,,---,0.00,VWS V14.00,2013-01-26 15:50:00,
2013-01-26 09:55:00,42.6,38.1,30.24,NE,40,4.0,5.0,84,0.00,,---,0.00,VWS V14.00,2013-01-26 15:55:00,
2013-01-26 10:00:00,43.5,38.4,30.24,NE,53,3.0,4.0,82,0.00,,---,0.00,VWS V14.00,2013-01-26 16:00:00,
2013-01-26 10:05:00,44.3,38.5,30.24,NE,54,4.0,5.0,80,0.00,,---,0.00,VWS V14.00,2013-01-26 16:05:00,
2013-01-26 10:10:00,44.8,38.4,30.24,NE,54,3.0,5.0,78,0.00,,---,0.00,VWS V14.00,2013-01-26 16:10:00,
2013-01-26 10:15:00,45.2,38.4,30.24,NE,54,0.0,0.0,77,0.00,,---,0.00,VWS V14.00,2013-01-26 16:15:00,
2013-01-26 10:20:00,45.6,38.2,30.24,NE,54,3.0,4.0,75,0.00,,---,0.00,VWS V14.00,2013-01-26 16:20:00,
2013-01-26 10:25:00,46.0,38.2,30.24,NE,56,6.0,6.0,74,0.00,,---,0.00,VWS V14.00,2013-01-26 16:25:00,
2013-01-26 10:30:00,46.4,37.9,30.24,ENE,71,6.0,7.0,72,0.00,,---,0.00,VWS V14.00,2013-01-26 16:30:00,
2013-01-26 10:35:00,46.6,37.3,30.24,East,92,6.0,7.0,70,0.00,,---,0.00,VWS V14.00,2013-01-26 16:35:00,
2013-01-26 10:40:00,46.9,36.9,30.24,East,96,6.0,6.0,68,0.00,,---,0.00,VWS V14.00,2013-01-26 16:40:00,
2013-01-26 10:45:00,47.2,36.8,30.24,East,97,5.0,6.0,67,0.00,,---,0.00,VWS V14.00,2013-01-26 16:45:00,
2013-01-26 10:50:00,47.5,36.7,30.24,East,101,5.0,6.0,66,0.00,,---,0.00,VWS V14.00,2013-01-26 16:50:00,
2013-01-26 10:55:00,47.7,36.5,30.25,ESE,119,4.0,5.0,65,0.00,,---,0.00,VWS V14.00,2013-01-26 16:55:00,
2013-01-26 11:00:00,47.9,36.3,30.24,ESE,123,9.0,9.0,64,0.00,,---,0.00,VWS V14.00,2013-01-26 17:00:00,
2013-01-26 11:05:00,48.1,35.7,30.24,SE,126,4.0,7.0,62,0.00,,---,0.00,VWS V14.00,2013-01-26 17:05:00,
2013-01-26 11:10:00,48.3,35.9,30.24,SE,128,4.0,6.0,62,0.00,,---,0.00,VWS V14.00,2013-01-26 17:10:00,
2013-01-26 11:15:00,48.6,35.4,30.24,ESE,119,9.0,11.0,60,0.00,,---,0.00,VWS V14.00,2013-01-26 17:15:00,
2013-01-26 11:20:00,48.7,35.0,30.24,SE,125,6.0,9.0,59,0.00,,---,0.00,VWS V14.00,2013-01-26 17:20:00,
2013-01-26 11:25:00,48.8,35.1,30.24,SE,130,6.0,11.0,59,0.00,,---,0.00,VWS V14.00,2013-01-26 17:25:00,
2013-01-26 11:30:00,49.0,34.9,30.24,SE,138,8.0,11.0,58,0.00,,---,0.00,VWS V14.00,2013-01-26 17:30:00,
2013-01-26 11:35:00,49.1,34.5,30.23,SE,124,10.0,11.0,57,0.00,,---,0.00,VWS V14.00,2013-01-26 17:35:00,
2013-01-26 11:40:00,49.1,34.5,30.23,SSE,152,9.0,11.0,57,0.00,,---,0.00,VWS V14.00,2013-01-26 17:40:00,
2013-01-26 11:45:00,49.2,34.6,30.23,SSE,155,4.0,11.0,57,0.00,,---,0.00,VWS V14.00,2013-01-26 17:45:00,
2013-01-26 11:50:00,49.2,34.6,30.23,SE,144,6.0,9.0,57,0.00,,---,0.00,VWS V14.00,2013-01-26 17:50:00,
2013-01-26 11:55:00,49.1,34.5,30.22,SE,128,7.0,11.0,57,0.00,,---,0.00,VWS V14.00,2013-01-26 17:55:00,
2013-01-26 12:00:00,49.0,34.9,30.21,SE,144,5.0,7.0,58,0.00,,---,0.00,VWS V14.00,2013-01-26 18:00:00,
2013-01-26 12:05:00,48.9,35.2,30.21,SE,139,5.0,10.0,59,0.00,,---,0.00,VWS V14.00,2013-01-26 18:05:00,
2013-01-26 12:10:00,48.9,35.2,30.21,SE,140,6.0,8.0,59,0.00,,---,0.00,VWS V14.00,2013-01-26 18:10:00,
2013-01-26 12:15:00,48.9,34.8,30.21,SE,127,6.0,14.0,58,0.00,,---,0.00,VWS V14.00,2013-01-26 18:15:00,
2013-01-26 12:20:00,49.0,34.5,30.20,ESE,123,6.0,13.0,57,0.00,,---,0.00,VWS V14.00,2013-01-26 18:20:00,
2013-01-26 12:25:00,49.2,33.7,30.19,SE,136,7.0,10.0,55,0.00,,---,0.00,VWS V14.00,2013-01-26 18:25:00,
2013-01-26 12:30:00,49.4,34.4,30.19,SE,127,8.0,10.0,56,0.00,,---,0.00,VWS V14.00,2013-01-26 18:30:00,
2013-01-26 12:35:00,49.8,34.8,30.19,SE,142,6.0,11.0,56,0.00,,---,0.00,VWS V14.00,2013-01-26 18:35:00,
2013-01-26 12:40:00,50.1,34.6,30.19,ESE,121,7.0,9.0,55,0.00,,---,0.00,VWS V14.00,2013-01-26 18:40:00,
2013-01-26 12:45:00,50.3,34.8,30.18,SE,132,11.0,12.0,55,0.00,,---,0.00,VWS V14.00,2013-01-26 18:45:00,
2013-01-26 12:50:00,50.5,35.0,30.18,SE,134,10.0,10.0,55,0.00,,---,0.00,VWS V14.00,2013-01-26 18:50:00,
2013-01-26 12:55:00,50.5,34.5,30.18,SE,144,7.0,11.0,54,0.00,,---,0.00,VWS V14.00,2013-01-26 18:55:00,
2013-01-26 13:00:00,50.6,34.6,30.18,SE,138,7.0,13.0,54,0.00,,---,0.00,VWS V14.00,2013-01-26 19:00:00,
2013-01-26 13:05:00,50.8,35.2,30.18,SE,136,7.0,10.0,55,0.00,,---,0.00,VWS V14.00,2013-01-26 19:05:00,
2013-01-26 13:10:00,50.9,35.8,30.17,SE,133,6.0,10.0,56,0.00,,---,0.00,VWS V14.00,2013-01-26 19:10:00,
2013-01-26 13:15:00,50.9,34.9,30.17,SE,128,4.0,6.0,54,0.00,,---,0.00,VWS V14.00,2013-01-26 19:15:00,
2013-01-26 13:20:00,51.0,34.0,30.17,SSE,159,7.0,15.0,52,0.00,,---,0.00,VWS V14.00,2013-01-26 19:20:00,
2013-01-26 13:25:00,51.0,34.0,30.17,SE,139,6.0,14.0,52,0.00,,---,0.00,VWS V14.00,2013-01-26 19:25:00,
2013-01-26 13:30:00,50.7,33.7,30.17,SSE,147,9.0,12.0,52,0.00,,---,0.00,VWS V14.00,2013-01-26 19:30:00,
2013-01-26 13:35:00,50.4,33.9,30.17,SSE,157,10.0,14.0,53,0.00,,---,0.00,VWS V14.00,2013-01-26 19:35:00,
2013-01-26 13:40:00,50.0,33.6,30.16,SSE,150,5.0,13.0,53,0.00,,---,0.00,VWS V14.00,2013-01-26 19:40:00,
2013-01-26 13:45:00,49.9,33.9,30.16,SE,144,9.0,10.0,54,0.00,,---,0.00,VWS V14.00,2013-01-26 19:45:00,
2013-01-26 13:50:00,49.7,33.8,30.16,SSE,154,7.0,10.0,54,0.00,,---,0.00,VWS V14.00,2013-01-26 19:50:00,
2013-01-26 13:55:00,49.6,34.1,30.16,SSE,154,6.0,9.0,55,0.00,,---,0.00,VWS V14.00,2013-01-26 19:55:00,
2013-01-26 14:00:00,49.4,33.9,30.16,SSE,148,5.0,9.0,55,0.00,,---,0.00,VWS V14.00,2013-01-26 20:00:00,
2013-01-26 14:05:00,49.2,34.2,30.15,SSE,150,9.0,11.0,56,0.00,,---,0.00,VWS V14.00,2013-01-26 20:05:00,
2013-01-26 14:10:00,49.1,34.1,30.16,SE,141,4.0,10.0,56,0.00,,---,0.00,VWS V14.00,2013-01-26 20:10:00,
2013-01-26 14:15:00,49.0,34.5,30.15,SE,140,5.0,9.0,57,0.00,,---,0.00,VWS V14.00,2013-01-26 20:15:00,
2013-01-26 14:20:00,49.0,34.5,30.15,ESE,121,10.0,12.0,57,0.00,,---,0.00,VWS V14.00,2013-01-26 20:20:00,
2013-01-26 14:25:00,48.9,34.8,30.15,SE,138,6.0,11.0,58,0.00,,---,0.00,VWS V14.00,2013-01-26 20:25:00,
2013-01-26 14:30:00,48.8,34.7,30.14,SE,130,6.0,10.0,58,0.00,,---,0.00,VWS V14.00,2013-01-26 20:30:00,
2013-01-26 14:35:00,48.7,34.6,30.14,SE,137,6.0,11.0,58,0.00,,---,0.00,VWS V14.00,2013-01-26 20:35:00,
2013-01-26 14:40:00,48.6,34.9,30.14,SE,132,11.0,12.0,59,0.00,,---,0.00,VWS V14.00,2013-01-26 20:40:00,
2013-01-26 14:45:00,48.5,34.8,30.14,SE,128,6.0,9.0,59,0.00,,---,0.00,VWS V14.00,2013-01-26 20:45:00,
2013-01-26 14:50:00,48.6,35.4,30.14,ESE,117,8.0,11.0,60,0.00,,---,0.00,VWS V14.00,2013-01-26 20:50:00,
2013-01-26 14:55:00,48.7,35.9,30.14,ESE,119,9.0,12.0,61,0.00,,---,0.00,VWS V14.00,2013-01-26 20:55:00,
2013-01-26 15:00:00,48.8,36.0,30.14,ESE,119,7.0,7.0,61,0.00,,---,0.00,VWS V14.00,2013-01-26 21:00:00,
2013-01-26 15:05:00,48.7,36.3,30.14,ESE,119,8.0,14.0,62,0.00,,---,0.00,VWS V14.00,2013-01-26 21:05:00,
2013-01-26 15:10:00,48.7,36.7,30.14,ESE,111,7.0,10.0,63,0.00,,---,0.00,VWS V14.00,2013-01-26 21:10:00,
2013-01-26 15:15:00,48.5,36.9,30.14,ESE,112,6.0,9.0,64,0.00,,---,0.00,VWS V14.00,2013-01-26 21:15:00,
2013-01-26 15:20:00,48.3,36.7,30.14,ESE,108,8.0,10.0,64,0.00,,---,0.00,VWS V14.00,2013-01-26 21:20:00,
2013-01-26 15:25:00,48.2,36.6,30.14,ESE,103,9.0,11.0,64,0.00,,---,0.00,VWS V14.00,2013-01-26 21:25:00,
2013-01-26 15:30:00,48.2,36.6,30.14,East,101,10.0,10.0,64,0.00,,---,0.00,VWS V14.00,2013-01-26 21:30:00,
2013-01-26 15:35:00,48.2,36.6,30.14,ESE,111,8.0,10.0,64,0.00,,---,0.00,VWS V14.00,2013-01-26 21:35:00,
2013-01-26 15:40:00,48.3,37.1,30.14,ESE,115,11.0,11.0,65,0.00,,---,0.00,VWS V14.00,2013-01-26 21:40:00,
2013-01-26 15:45:00,48.4,36.8,30.13,ESE,115,10.0,11.0,64,0.00,,---,0.00,VWS V14.00,2013-01-26 21:45:00,
2013-01-26 15:50:00,48.4,36.8,30.13,ESE,112,10.0,11.0,64,0.00,,---,0.00,VWS V14.00,2013-01-26 21:50:00,
2013-01-26 15:55:00,48.5,36.5,30.13,SE,125,10.0,11.0,63,0.00,,---,0.00,VWS V14.00,2013-01-26 21:55:00,
2013-01-26 16:00:00,48.5,36.5,30.13,ESE,121,7.0,12.0,63,0.00,,---,0.00,VWS V14.00,2013-01-26 22:00:00,
2013-01-26 16:05:00,48.5,36.5,30.13,SE,126,7.0,12.0,63,0.00,,---,0.00,VWS V14.00,2013-01-26 22:05:00,
2013-01-26 16:10:00,48.5,36.1,30.14,SE,125,13.0,14.0,62,0.00,,---,0.00,VWS V14.00,2013-01-26 22:10:00,
2013-01-26 16:15:00,48.5,36.1,30.14,ESE,121,8.0,11.0,62,0.00,,---,0.00,VWS V14.00,2013-01-26 22:15:00,
2013-01-26 16:20:00,48.5,36.1,30.14,ESE,118,5.0,11.0,62,0.00,,---,0.00,VWS V14.00,2013-01-26 22:20:00,
2013-01-26 16:25:00,48.5,36.1,30.14,ESE,115,11.0,13.0,62,0.00,,---,0.00,VWS V14.00,2013-01-26 22:25:00,
2013-01-26 16:30:00,48.4,35.6,30.14,ESE,117,10.0,11.0,61,0.00,,---,0.00,VWS V14.00,2013-01-26 22:30:00,
2013-01-26 16:35:00,48.4,35.6,30.13,SE,124,10.0,12.0,61,0.00,,---,0.00,VWS V14.00,2013-01-26 22:35:00,
2013-01-26 16:40:00,48.3,35.5,30.14,SE,136,7.0,13.0,61,0.00,,---,0.00,VWS V14.00,2013-01-26 22:40:00,
2013-01-26 16:45:00,48.2,35.8,30.13,SE,131,10.0,10.0,62,0.00,,---,0.00,VWS V14.00,2013-01-26 22:45:00,
2013-01-26 16:50:00,48.3,35.9,30.14,SE,126,8.0,10.0,62,0.00,,---,0.00,VWS V14.00,2013-01-26 22:50:00,
2013-01-26 16:55:00,48.3,35.9,30.14,SE,129,5.0,9.0,62,0.00,,---,0.00,VWS V14.00,2013-01-26 22:55:00,
2013-01-26 17:00:00,48.3,36.3,30.14,SE,137,6.0,7.0,63,0.00,,---,0.00,VWS V14.00,2013-01-26 23:00:00,
2013-01-26 17:05:00,48.2,36.2,30.14,SE,133,5.0,11.0,63,0.00,,---,0.00,VWS V14.00,2013-01-26 23:05:00,
2013-01-26 17:10:00,48.1,36.1,30.15,SE,127,5.0,11.0,63,0.00,,---,0.00,VWS V14.00,2013-01-26 23:10:00,
2013-01-26 17:15:00,48.0,36.0,30.14,SE,135,6.0,7.0,63,0.00,,---,0.00,VWS V14.00,2013-01-26 23:15:00,
2013-01-26 17:20:00,47.9,36.3,30.14,SE,134,6.0,9.0,64,0.00,,---,0.00,VWS V14.00,2013-01-26 23:20:00,
2013-01-26 17:25:00,47.8,36.2,30.14,SE,132,5.0,9.0,64,0.00,,---,0.00,VWS V14.00,2013-01-26 23:25:00,
2013-01-26 17:30:00,47.8,36.2,30.13,ESE,122,8.0,11.0,64,0.00,,---,0.00,VWS V14.00,2013-01-26 23:30:00,
2013-01-26 17:35:00,47.7,36.1,30.14,ESE,121,4.0,6.0,64,0.00,,---,0.00,VWS V14.00,2013-01-26 23:35:00,
2013-01-26 17:40:00,47.7,36.1,30.14,ESE,121,6.0,10.0,64,0.00,,---,0.00,VWS V14.00,2013-01-26 23:40:00,
2013-01-26 17:45:00,47.6,36.0,30.13,ESE,119,6.0,7.0,64,0.00,,---,0.00,VWS V14.00,2013-01-26 23:45:00,
2013-01-26 17:50:00,47.6,36.0,30.13,ESE,118,8.0,9.0,64,0.00,,---,0.00,VWS V14.00,2013-01-26 23:50:00,
2013-01-26 17:55:00,47.6,35.6,30.13,ESE,119,6.0,7.0,63,0.00,,---,0.00,VWS V14.00,2013-01-26 23:55:00,
2013-01-26 18:00:00,47.5,35.5,30.13,ESE,117,7.0,7.0,63,0.00,,---,0.00,VWS V14.00,2013-01-27 00:00:00,
2013-01-26 18:05:00,47.5,35.5,30.13,ESE,119,7.0,11.0,63,0.00,,---,0.00,VWS V14.00,2013-01-27 00:05:00,
2013-01-26 18:10:00,47.5,35.5,30.13,ESE,119,5.0,10.0,63,0.00,,---,0.00,VWS V14.00,2013-01-27 00:10:00,
2013-01-26 18:15:00,47.5,35.5,30.13,ESE,115,4.0,7.0,63,0.00,,---,0.00,VWS V14.00,2013-01-27 00:15:00,
2013-01-26 18:20:00,47.4,35.5,30.13,ESE,113,5.0,6.0,63,0.00,,---,0.00,VWS V14.00,2013-01-27 00:20:00,
2013-01-26 18:25:00,47.4,35.5,30.13,ESE,113,7.0,12.0,63,0.00,,---,0.00,VWS V14.00,2013-01-27 00:25:00,
2013-01-26 18:30:00,47.4,35.0,30.13,ESE,117,11.0,11.0,62,0.00,,---,0.00,VWS V14.00,2013-01-27 00:30:00,
2013-01-26 18:35:00,47.4,35.0,30.13,ESE,115,9.0,10.0,62,0.00,,---,0.00,VWS V14.00,2013-01-27 00:35:00,
2013-01-26 18:40:00,47.4,35.0,30.13,SE,128,11.0,12.0,62,0.00,,---,0.00,VWS V14.00,2013-01-27 00:40:00,
2013-01-26 18:45:00,47.4,35.0,30.13,ESE,115,4.0,10.0,62,0.00,,---,0.00,VWS V14.00,2013-01-27 00:45:00,
2013-01-26 18:50:00,47.3,35.0,30.13,ESE,119,7.0,10.0,62,0.00,,---,0.00,VWS V14.00,2013-01-27 00:50:00,
2013-01-26 18:55:00,47.3,35.0,30.13,ESE,113,8.0,10.0,62,0.00,,---,0.00,VWS V14.00,2013-01-27 00:55:00,
2013-01-26 19:00:00,47.2,34.9,30.13,ESE,115,12.0,12.0,62,0.00,,---,0.00,VWS V14.00,2013-01-27 01:00:00,
2013-01-26 19:05:00,47.2,34.9,30.13,ESE,109,6.0,9.0,62,0.00,,---,0.00,VWS V14.00,2013-01-27 01:05:00,
2013-01-26 19:10:00,47.2,34.9,30.13,ESE,120,10.0,12.0,62,0.00,,---,0.00,VWS V14.00,2013-01-27 01:10:00,
2013-01-26 19:15:00,47.2,34.9,30.13,ESE,120,7.0,10.0,62,0.00,,---,0.00,VWS V14.00,2013-01-27 01:15:00,
2013-01-26 19:20:00,47.1,34.4,30.13,ESE,118,9.0,11.0,61,0.00,,---,0.00,VWS V14.00,2013-01-27 01:20:00,
2013-01-26 19:25:00,47.0,34.3,30.13,ESE,119,4.0,9.0,61,0.00,,---,0.00,VWS V14.00,2013-01-27 01:25:00,
2013-01-26 19:30:00,47.0,34.3,30.13,ESE,121,6.0,10.0,61,0.00,,---,0.00,VWS V14.00,2013-01-27 01:30:00,
2013-01-26 19:35:00,46.9,34.2,30.13,SE,126,5.0,7.0,61,0.00,,---,0.00,VWS V14.00,2013-01-27 01:35:00,
2013-01-26 19:40:00,46.9,34.2,30.14,SE,127,6.0,7.0,61,0.00,,---,0.00,VWS V14.00,2013-01-27 01:40:00,
2013-01-26 19:45:00,46.9,34.2,30.13,SE,129,5.0,9.0,61,0.00,,---,0.00,VWS V14.00,2013-01-27 01:45:00,
2013-01-26 19:50:00,46.8,34.1,30.13,SE,128,7.0,7.0,61,0.00,,---,0.00,VWS V14.00,2013-01-27 01:50:00,
2013-01-26 19:55:00,46.7,34.0,30.13,SE,126,5.0,8.0,61,0.00,,---,0.00,VWS V14.00,2013-01-27 01:55:00,
2013-01-26 20:00:00,46.7,33.6,30.13,ESE,121,6.0,9.0,60,0.00,,---,0.00,VWS V14.00,2013-01-27 02:00:00,
2013-01-26 20:05:00,46.6,33.5,30.13,SE,125,9.0,11.0,60,0.00,,---,0.00,VWS V14.00,2013-01-27 02:05:00,
2013-01-26 20:10:00,46.5,33.4,30.12,ESE,119,7.0,10.0,60,0.00,,---,0.00,VWS V14.00,2013-01-27 02:10:00,
2013-01-26 20:15:00,46.5,33.8,30.13,ESE,119,5.0,7.0,61,0.00,,---,0.00,VWS V14.00,2013-01-27 02:15:00,
2013-01-26 20:20:00,46.4,33.7,30.13,ESE,123,4.0,10.0,61,0.00,,---,0.00,VWS V14.00,2013-01-27 02:20:00,
2013-01-26 20:25:00,46.3,33.6,30.13,ESE,121,7.0,7.0,61,0.00,,---,0.00,VWS V14.00,2013-01-27 02:25:00,
2013-01-26 20:30:00,46.2,33.5,30.12,ESE,119,4.0,7.0,61,0.00,,---,0.00,VWS V14.00,2013-01-27 02:30:00,
2013-01-26 20:35:00,46.1,33.4,30.12,ESE,119,5.0,6.0,61,0.00,,---,0.00,VWS V14.00,2013-01-27 02:35:00,
2013-01-26 20:40:00,45.9,33.2,30.12,ESE,118,7.0,10.0,61,0.00,,---,0.00,VWS V14.00,2013-01-27 02:40:00,
2013-01-26 20:45:00,45.8,33.1,30.12,ESE,117,6.0,6.0,61,0.00,,---,0.00,VWS V14.00,2013-01-27 02:45:00,
2013-01-26 20:50:00,45.7,33.0,30.12,ESE,117,4.0,7.0,61,0.00,,---,0.00,VWS V14.00,2013-01-27 02:50:00,
2013-01-26 20:55:00,45.6,32.9,30.12,ESE,119,6.0,8.0,61,0.00,,---,0.00,VWS V14.00,2013-01-27 02:55:00,
2013-01-26 21:00:00,45.6,32.9,30.12,ESE,119,4.0,5.0,61,0.00,,---,0.00,VWS V14.00,2013-01-27 03:00:00,
2013-01-26 21:05:00,45.5,32.8,30.12,ESE,119,4.0,6.0,61,0.00,,---,0.00,VWS V14.00,2013-01-27 03:05:00,
2013-01-26 21:10:00,45.4,32.8,30.11,ESE,119,6.0,8.0,61,0.00,,---,0.00,VWS V14.00,2013-01-27 03:10:00,
2013-01-26 21:15:00,45.3,33.1,30.11,ESE,119,6.0,6.0,62,0.00,,---,0.00,VWS V14.00,2013-01-27 03:15:00,
2013-01-26 21:20:00,45.2,33.0,30.11,ESE,122,7.0,9.0,62,0.00,,---,0.00,VWS V14.00,2013-01-27 03:20:00,
2013-01-26 21:25:00,45.1,32.9,30.11,ESE,122,6.0,6.0,62,0.00,,---,0.00,VWS V14.00,2013-01-27 03:25:00,
2013-01-26 21:30:00,45.1,32.9,30.11,ESE,120,7.0,9.0,62,0.00,,---,0.00,VWS V14.00,2013-01-27 03:30:00,
2013-01-26 21:35:00,45.1,32.9,30.11,ESE,119,7.0,9.0,62,0.00,,---,0.00,VWS V14.00,2013-01-27 03:35:00,
2013-01-26 21:40:00,45.1,32.9,30.10,ESE,119,7.0,9.0,62,0.00,,---,0.00,VWS V14.00,2013-01-27 03:40:00,
2013-01-26 21:45:00,45.2,33.0,30.10,ESE,119,6.0,9.0,62,0.00,,---,0.00,VWS V14.00,2013-01-27 03:45:00,
2013-01-26 21:50:00,45.2,33.4,30.10,ESE,115,7.0,9.0,63,0.00,,---,0.00,VWS V14.00,2013-01-27 03:50:00,
2013-01-26 21:55:00,45.3,33.5,30.10,ESE,117,6.0,8.0,63,0.00,,---,0.00,VWS V14.00,2013-01-27 03:55:00,
2013-01-26 22:00:00,45.2,33.8,30.09,ESE,121,7.0,9.0,64,0.00,,---,0.00,VWS V14.00,2013-01-27 04:00:00,
2013-01-26 22:05:00,45.3,33.9,30.10,SE,132,5.0,7.0,64,0.00,,---,0.00,VWS V14.00,2013-01-27 04:05:00,
2013-01-26 22:10:00,45.3,33.5,30.10,SE,128,7.0,10.0,63,0.00,,---,0.00,VWS V14.00,2013-01-27 04:10:00,
2013-01-26 22:15:00,45.4,33.6,30.10,SE,133,5.0,12.0,63,0.00,,---,0.00,VWS V14.00,2013-01-27 04:15:00,
2013-01-26 22:20:00,45.5,33.7,30.10,SE,128,12.0,12.0,63,0.00,,---,0.00,VWS V14.00,2013-01-27 04:20:00,
2013-01-26 22:25:00,45.7,33.8,30.10,SE,137,6.0,8.0,63,0.00,,---,0.00,VWS V14.00,2013-01-27 04:25:00,
2013-01-26 22:30:00,45.8,33.9,30.10,ESE,123,10.0,10.0,63,0.00,,---,0.00,VWS V14.00,2013-01-27 04:30:00,
2013-01-26 22:35:00,45.8,33.9,30.10,SE,134,5.0,11.0,63,0.00,,---,0.00,VWS V14.00,2013-01-27 04:35:00,
2013-01-26 22:40:00,45.9,34.0,30.10,SE,133,5.0,7.0,63,0.00,,---,0.00,VWS V14.00,2013-01-27 04:40:00,
2013-01-26 22:45:00,45.9,34.4,30.09,SE,132,10.0,10.0,64,0.00,,---,0.00,VWS V14.00,2013-01-27 04:45:00,
2013-01-26 22:50:00,45.9,34.4,30.09,SE,132,10.0,13.0,64,0.00,,---,0.00,VWS V14.00,2013-01-27 04:50:00,
2013-01-26 22:55:00,45.9,34.4,30.09,SE,134,10.0,14.0,64,0.00,,---,0.00,VWS V14.00,2013-01-27 04:55:00,
2013-01-26 23:00:00,45.9,34.8,30.09,SE,127,8.0,11.0,65,0.00,,---,0.00,VWS V14.00,2013-01-27 05:00:00,
2013-01-26 23:01:00,45.9,34.8,30.09,SE,128,6.0,11.0,65,0.00,,---,0.00,VWS V14.00,2013-01-27 05:01:00,
2013-01-26 23:02:00,45.9,34.8,30.09,SE,132,10.0,14.0,65,0.00,,---,0.00,VWS V14.00,2013-01-27 05:02:00,
2013-01-26 23:05:00,45.9,34.8,30.09,SE,132,5.0,14.0,65,0.00,,---,0.00,VWS V14.00,2013-01-27 05:05:00,
2013-01-26 23:07:00,45.9,34.8,30.10,SE,136,7.0,9.0,65,0.00,,---,0.00,VWS V14.00,2013-01-27 05:07:00,
2013-01-26 23:10:00,45.9,34.8,30.10,SE,138,10.0,14.0,65,0.00,,---,0.00,VWS V14.00,2013-01-27 05:10:00,
2013-01-26 23:12:00,46.0,35.3,30.10,SE,135,3.0,13.0,66,0.00,,---,0.00,VWS V14.00,2013-01-27 05:12:00,
2013-01-26 23:15:00,45.9,35.2,30.10,SE,145,6.0,13.0,66,0.00,,---,0.00,VWS V14.00,2013-01-27 05:15:00,
2013-01-26 23:17:00,45.9,35.2,30.10,SE,139,5.0,10.0,66,0.00,,---,0.00,VWS V14.00,2013-01-27 05:17:00,
2013-01-26 23:20:00,45.9,35.2,30.09,SE,137,4.0,10.0,66,0.00,,---,0.00,VWS V14.00,2013-01-27 05:20:00,
2013-01-26 23:22:00,45.9,35.2,30.09,SE,134,10.0,11.0,66,0.00,,---,0.00,VWS V14.00,2013-01-27 05:22:00,
2013-01-26 23:25:00,45.8,35.1,30.09,SE,134,8.0,11.0,66,0.00,,---,0.00,VWS V14.00,2013-01-27 05:25:00,
2013-01-26 23:27:00,45.8,35.5,30.09,SSE,149,6.0,12.0,67,0.00,,---,0.00,VWS V14.00,2013-01-27 05:27:00,
2013-01-26 23:30:00,45.8,35.5,30.09,SSE,147,9.0,14.0,67,0.00,,---,0.00,VWS V14.00,2013-01-27 05:30:00,
2013-01-26 23:32:00,45.8,35.8,30.09,SE,141,6.0,12.0,68,0.00,,---,0.00,VWS V14.00,2013-01-27 05:32:00,
2013-01-26 23:35:00,45.8,35.8,30.08,SE,132,5.0,12.0,68,0.00,,---,0.00,VWS V14.00,2013-01-27 05:35:00,
2013-01-26 23:37:00,45.8,36.2,30.08,SE,140,9.0,15.0,69,0.00,,---,0.00,VWS V14.00,2013-01-27 05:37:00,
2013-01-26 23:40:00,45.8,36.2,30.08,SE,138,10.0,15.0,69,0.00,,---,0.00,VWS V14.00,2013-01-27 05:40:00,
2013-01-26 23:42:00,45.8,36.6,30.08,SE,134,4.0,10.0,70,0.00,,---,0.00,VWS V14.00,2013-01-27 05:42:00,
2013-01-26 23:45:00,45.8,36.6,30.08,SE,136,3.0,14.0,70,0.00,,---,0.00,VWS V14.00,2013-01-27 05:45:00,
2013-01-26 23:47:00,45.8,36.6,30.08,ESE,119,11.0,12.0,70,0.00,,---,0.00,VWS V14.00,2013-01-27 05:47:00,
2013-01-26 23:50:00,45.8,37.0,30.08,SE,139,11.0,12.0,71,0.00,,---,0.00,VWS V14.00,2013-01-27 05:50:00,
2013-01-26 23:52:00,45.8,37.0,30.08,SE,144,6.0,12.0,71,0.00,,---,0.00,VWS V14.00,2013-01-27 05:52:00,
2013-01-26 23:55:00,45.8,37.0,30.08,SSE,153,9.0,12.0,71,0.00,,---,0.00,VWS V14.00,2013-01-27 05:55:00,
2013-01-26 23:57:00,45.8,37.0,30.09,SSE,150,5.0,11.0,71,0.00,,---,0.00,VWS V14.00,2013-01-27 05:57:00,